Location: Il Ritiro
(43.4167°N, 13.1333°E)
Time: 17:10:35
(UTC+00:00)

Cosmos 1758 Rocket - Pass Details

Date: 05 July 2020
Orbit: 601 x 637 km, 82.5° (Epoch: 11 August)

Event Time Altitude Azimuth Distance (km) Brightness Sun altitude
Exits shadow 19:30:44 - 163° (SSE) 2,597 6.2 -6.6°
Reaches altitude 10° 19:32:15 10° 158° (SSE) 2,018 5.6 -6.9°
Maximum altitude 19:36:22 36° 91° (E) 1,004 4.3 -7.4°
Drops below altitude 10° 19:40:30 10° 25° (NNE) 2,033 6.4 -8.0°
Sets 19:42:52 0° 17° (NNE) 2,944 7.4 -8.3°
